Regional Weather Roundup
Issued by NWS Austin/San Antonio, TX

Home | Current Version | Previous Version | Text Only | Print | Product List | Glossary On
Versions: 1 2 3 4 5 6 7 8 9 10 11 12 13 14 15 16 17 18 19 20 21 22 23 24 25 26 27 28 29 30 31 32 33 34 35 36 37 38 39 40 41 42 43 44 45 46 47 48 49 50
000
ASUS44 KEWX 221310
RWREWX
SOUTH TEXAS REGIONAL WEATHER ROUNDUP
NATIONAL WEATHER SERVICE AUSTIN/SAN ANTONIO TX
800 AM CDT TUE JUN 22 2021

NOTE: "FAIR" INDICATED FEW OR NO CLOUDS BELOW 12,000 FEET WITH NO
SIGNIFICANT WEATHER AND/OR OBSTRUCTIONS TO VISIBILITY.

* - THESE STATIONS ARE NOT NWS OR FAA STATIONS...AND ARE NOT SUBJECT
    TO NWS AND FAA QUALITY CONTROL.

TXZ171-172-183>190-221400-
TEXAS HILL COUNTRY AND EDWARDS PLATEAU

CITY           SKY/WX    TMP DP  RH WIND       PRES   REMARKS
JUNCTION       CLOUDY    72  64  76 E7        30.06R
*LLANO         CLOUDY    72  68  88 N6        30.02R
BURNET         CLOUDY    70  67  90 NE10G16   30.06R
*HORSESHOE BAY CLOUDY    70  68  92 NE6       30.04R
*LAGO VISTA    CLOUDY    69  68  97 NE7       30.03R
*KERRVILLE     CLOUDY    72  68  89 N7        30.02S
*FREDERICKSBRG CLOUDY   N/A N/A N/A NE6       30.04R
*ROCKSPRINGS   RAIN      68  68 100 MISG      30.12R
*BOERNE        CLOUDY    72  72 100 N5        30.01S
*CASTROVILLE   CLOUDY    78  76  95 NE3       29.99R FOG
HONDO          CLOUDY    75  70  84 N8        29.98R
*UVALDE        CLOUDY    73  73 100 NE6       30.01R
DEL RIO        CLOUDY    78  73  84 NW3       30.01R
*LAUGHLIN AFB  CLOUDY    74  73  98 NW7       30.01R
*SPOFFORD      CLOUDY    75  75 100 N6        29.93R
*EAGLE PASS    PTSUNNY   75  72  88 N7        29.98R
CARRIZO SPRGS  CLOUDY    79  79 100 E3        29.94R FOG
$$

TXZ173-191>194-202-209-217>225-228-221400-
CENTRAL AND SOUTH CENTRAL TEXAS

CITY           SKY/WX    TMP DP  RH WIND       PRES   REMARKS
GEORGETOWN     CLOUDY    71  68  90 N7        30.04R
*TAYLOR        CLOUDY   N/A N/A N/A N9        30.00R
AUSTIN/BERGSTM CLOUDY    72  69  90 N12       29.99R
AUSTIN/MABRY   CLOUDY    74  67  78 NE3       30.01R
*PFLUGERVILLE  CLOUDY    73  68  83 CALM      29.99R
SAN MARCOS     CLOUDY    73  73 100 NE9       30.00R
NEW BRAUNFELS  CLOUDY    75  72  90 NE10      29.98R
*RANDOLPH AFB  CLOUDY    76  74  93 NE7       29.96R
*SEGUIN        CLOUDY    74  73  95 N10       30.01R
SAN ANTONIO    CLOUDY    76  73  91 N6        29.97R
STINSON FIELD  CLOUDY    77  75  93 CALM      29.94R
*KELLY FIELD   CLOUDY    77  75  94 N6        29.95R
*PLEASANTON    CLOUDY    79  76  91 W3        29.93R FOG
*KENEDY        CLOUDY    75  70  85 CALM      29.94R
*LA GRANGE     NOT AVBL
*GIDDINGS      MOSUNNY   73  71  93 N7        29.99R
*GONZALES      CLOUDY    74  73  96 NE6       29.97R
$$

TXZ163>164-176>182-195>201-210>213-226-227-235-221400-
SOUTHEAST TEXAS

CITY           SKY/WX    TMP DP  RH WIND       PRES   REMARKS
COLLEGE STN    MOSUNNY   76  72  87 NE14      29.96R
*BRYAN         CLOUDY    74  74 100 NE5       29.99R
*CALDWELL      PTSUNNY   74  72  94 N6        29.98R
*CROCKETT      CLOUDY    73  73 100 NE10      29.97R
*BRENHAM       PTSUNNY   76  74  92 N3        29.97R
HUNTSVILLE     CLOUDY    75  72  90 VRB5      29.97R
CONROE         CLOUDY    75  74  96 N5        29.96R
HOUSTON BUSH   PTSUNNY   79  76  90 N8        29.93R
HOUSTON HOBBY  PTSUNNY   80  76  87 W6        29.90F
*HOUSTON SW AP MOSUNNY   76  74  95 CALM      29.94R
PEARLAND       MOSUNNY   79  75  87 CALM      29.92R
HOUSTON HOOKS  PTSUNNY   77  75  93 N6        29.94R
ELLINGTON FLD  NOT AVBL
SUGAR LAND     MOSUNNY   81  75  82 CALM      29.93R
*HOUSTON EXEC    N/A     77  77 100 CALM      29.97R
*CLEVELAND MUN CLOUDY    75  75 100 CALM      29.95S
*WHARTON       CLOUDY    76  72  89 CALM      29.94R
*COLUMBUS      CLOUDY    76  74  94 NE5       29.97R
*EAGLE LAKE    NOT AVBL
$$

TXZ214>216-236>238-221400-
THE UPPER TEXAS COAST

CITY           SKY/WX    TMP DP  RH WIND       PRES   REMARKS
*ORANGE        TSTM      79  77  92 CALM      29.92F
PORT ARTHUR    CLOUDY    76  76 100 E6        29.92R
GALVESTON      CLOUDY    84  79  85 S8G23     29.90R THUNDER HX  96
ANGLETON       LGT RAIN  77  73  87 NW6       29.91R
*BAY CITY      LGT RAIN  75  73  93 S12       29.94R
PALACIOS       TSTM      81  77  88 N5        29.93R
$$

TXZ229>234-239>247-221400-
TEXAS COASTAL BEND AND RIO GRANDE PLAINS

CITY           SKY/WX    TMP DP  RH WIND       PRES   REMARKS
VICTORIA       CLOUDY    78  71  79 NE6       29.97R
*BEEVILLE      TSTM      81  81 100 E8        29.93S HX  92
ROCKPORT       TSTM      76  74  93 NE16      29.93R FOG
*PORT ARANSAS  CLOUDY    84  78  84 E6        29.94R HX  95
*PORT LAVACA   CLOUDY    80  73  78 NW3       29.94R
*INGLESIDE       N/A     82  77  86 NE29      29.92R THUNDER HX  90
CORPUS CHRISTI CLOUDY    83  80  91 E5        29.91R THUNDER FOG
CORPUS NAS     CLOUDY    85  80  85 SE8       29.91R THUNDER HX  99
*ROBSTOWN        N/A     84  81  90 CALM      29.92R HX  99
ALICE          CLOUDY    81  79  94 NE6       29.93R FOG     HX  90
KINGSVILLE NAS PTSUNNY   82  80  94 NE5       29.91R FOG     HX  94
COTULLA        CLOUDY    82  78  88 E9        29.94S FOG     HX  91
LAREDO         CLOUDY    82  78  88 NE5       29.90F FOG     HX  91
$$

TXZ248>255-221400-
DEEP SOUTH TEXAS

CITY           SKY/WX    TMP DP  RH WIND       PRES   REMARKS
BROWNSVILLE    MOSUNNY   84  77  79 E9        29.86R HX  94
PORT ISABEL    MOSUNNY   83  78  85 E12       29.86R HX  93
HARLINGEN      PTSUNNY   83  81  94 E9        29.86R FOG     HX  97
*HEBBRONVILLE  CLOUDY    80  71  74 E6        29.93S HAZE
MCALLEN        CLOUDY    83  77  82 E7        29.87R HX  92
*WESLACO       HAZE      83  78  83 SE7       29.86R VSB 1/2 HX  93
FALFURRIAS     CLOUDY    78  76  96 CALM      29.89R
EDINBURG       CLOUDY    82  79  90 E7        29.88R FOG     HX  93
*ZAPATA        CLOUDY    84  78  82 CALM      29.92R HAZE    HX  94
$$

TXZ213>215-236>238-242>244-246-247-251-254-255-221400-
CMAN STATIONS

STATION/POSITION TIME  TEMP    WIND        PRES    WAVE
                       AIR SEA DIR/SP/G            HT/PER
                 (UTC) (F)     (DEG/KT/KT) (MB)    (FT/S)
NORTH JETTY/GLS  1230   85 85  190/ 10/ 11 1011.4
EAGLE POINT      1230   81 84  330/  5/  9 1012.3
MORGANS POINT    1230   81 85  360/  2/  4 1012.6
MISSION/ARANSAS  1200   83     360/ 12     1014.0
PORT O`CONNOR    1230   80 89  210/ 14/ 16 1010.8
PORT ARANSAS     1300   84 85   70/  6/  7   N/A
MALAQUITE BEACH  1230   85     100/  8/ 10   N/A
BAFFIN BAY       1230   83 86   90/  7/ 10 1011.6
PORT ISABEL      1230   81 83  110/  7/  9 1012.1
$$



USA.gov is the U.S. government's official web portal to all federal, state and local government web resources and services.